Bariloche, Argentina

12:28 AM America on March 31, 2017 (GMT +0000)
S C De Bariloche

Weather History for SAZS - August, 2014

Change the Weather History Date:

Wednesday, August 20, 2014

  Actual Average Record
Temperature  
Mean Temperature 41 °F -  
Max Temperature 55 °F 49 °F 59 °F (2001)
Min Temperature 27 °F 31 °F 19 °F (2004)
Degree Days  
Heating Degree Days 24    
Moisture  
Dew Point 34 °F    
Average Humidity 76    
Maximum Humidity 93    
Minimum Humidity 51    
Precipitation  
Precipitation 0.00 in 0.10 in - ()
Sea Level Pressure  
Sea Level Pressure 29.94 in    
Wind  
Wind Speed 4 mph ()    
Max Wind Speed 18 mph    
Max Gust Speed -    
Visibility 6.1 miles    
Events      
Averages and records for this station are not official NWS values.
T = Trace of Precipitation, MM = Missing Value Source: Averaged Metar Reports

Daily Weather History Graph

Daily Weather History Graph

Search for Another Location

Airport or City:

Trip Planner

Search our weather history database for the weather conditions in past years. The results will help you decide how hot, cold, wet, or windy it might be!

Date:

Astronomy

Aug. 20, 2014 Rise Set
Actual Time 8:27 AM -03 7:08 PM -03
Civil Twilight 7:59 AM -03 7:37 PM -03
Nautical Twilight 7:27 AM -03 8:09 PM -03
Astronomical Twilight 6:55 AM -03 8:41 PM -03
Moon 4:58 AM -03 (8/20) 2:59 PM -03 (8/20)
Length of Visible Light 11h 37m
Length of Day
10h 41m
Waning Crescent, 21% of the Moon is Illuminated
Aug 20
Waning Crescent
Aug 25
New
Sep 2
First Quarter
Sep 8
Full
Sep 15
Last Quarter

Hourly Weather History & Observations

Time (-03) Temp. Windchill Dew Point Humidity Pressure Visibility Wind Dir Wind Speed Gust Speed Precip Events Conditions
12:00 AM 36 °F - 30 °F 73%  in 6 mi Calm Calm - -   Clear
12:00 AM 35.6 °F - 30.2 °F 81% 29.92 in - Calm Calm - N/A   Clear
1:00 AM 30.2 °F 26.7 °F 26.6 °F 86% 29.92 in - SSE 3.5 mph - N/A   Clear
2:00 AM 28.4 °F - 26.6 °F 93% 29.89 in - Calm Calm - N/A   Clear
3:00 AM 30 °F - 26 °F 80%  in 6 mi South 3.5 mph - -   Clear
3:00 AM 30.2 °F 26.7 °F 26.6 °F 86% 29.89 in - South 3.5 mph - N/A   Clear
4:00 AM 28.4 °F - 24.8 °F 86% 29.89 in - Calm Calm - N/A   Clear
5:00 AM 28.4 °F - 26.6 °F 93% 29.89 in - Calm Calm - N/A   Clear
6:00 AM 29 °F - 26 °F 83%  in 6 mi 2.3 mph - -   Scattered Clouds
6:00 AM 30.2 °F - 26.6 °F 86% 29.89 in 6.2 mi Variable 2.3 mph - N/A   Partly Cloudy
7:00 AM 28.4 °F - 24.8 °F 86% 29.92 in - Calm Calm - N/A   Clear
8:00 AM 28.4 °F - 24.8 °F 86% 29.92 in 6.2 mi Calm Calm - N/A   Partly Cloudy
9:00 AM 29 °F - 24 °F 75%  in 6 mi Calm Calm - -   Partly Cloudy
9:00 AM 28.4 °F - 24.8 °F 86% 29.95 in 6.2 mi Calm Calm - N/A   Scattered Clouds
10:00 AM 35.6 °F - 32.0 °F 87% 29.95 in 6.2 mi Calm Calm - N/A   Unknown
11:00 AM 41.0 °F - 33.8 °F 76% 29.95 in 6.2 mi Calm Calm - N/A   Partly Cloudy
12:00 PM 47 °F - 39 °F 65%  in 6 mi WNW 8.1 mph - -   Partly Cloudy
12:00 PM 46.4 °F 42.4 °F 39.2 °F 76% 29.95 in 6.2 mi WNW 8.1 mph - N/A   Scattered Clouds
1:00 PM 53.6 °F - 42.8 °F 67% 29.95 in 6.2 mi WNW 12.7 mph - N/A   Scattered Clouds
2:00 PM 53.6 °F - 42.8 °F 67% 29.95 in 6.2 mi WNW 16.1 mph - N/A   Scattered Clouds
3:00 PM 55 °F - 42 °F 51%  in 6 mi WNW 18.4 mph - -   Partly Cloudy
3:00 PM 55.4 °F - 42.8 °F 63% 29.92 in 6.2 mi WNW 18.4 mph - N/A   Scattered Clouds
4:00 PM 53.6 °F - 41.0 °F 62% 29.92 in 6.2 mi NW 18.4 mph - N/A   Mostly Cloudy
5:00 PM 51.8 °F - 41.0 °F 67% 29.95 in 6.2 mi NW 10.4 mph - N/A   Mostly Cloudy
6:00 PM 52 °F - 41 °F 55%  in 6 mi NW 18.4 mph - -   Mostly Cloudy
6:00 PM 51.8 °F - 41.0 °F 67% 29.95 in 6.2 mi NW 18.4 mph - N/A   Mostly Cloudy
7:00 PM 50.0 °F - 39.2 °F 66% 29.98 in 6.2 mi WNW 10.4 mph - N/A   Mostly Cloudy
8:00 PM 48.2 °F - 41.0 °F 76% 30.01 in 6.2 mi NW 9.2 mph - N/A   Mostly Cloudy
9:00 PM 48.2 °F - 41.0 °F 76% 30.01 in 6.2 mi NW 12.7 mph - N/A   Mostly Cloudy
10:00 PM 44.6 °F 38.4 °F 39.2 °F 81% 30.04 in 6.2 mi WNW 12.7 mph - N/A   Mostly Cloudy
11:00 PM 42.8 °F 38.6 °F 39.2 °F 87% 30.04 in 6.2 mi WNW 6.9 mph - N/A   Scattered Clouds